"2009-06-29 00:00:00",1016942,1.36,232,4.762,0.141,20.86,109.6633,24.03,25.04,26.47,0,111.2,13.11,24.87,194.0
"2009-06-29 00:00:30",1016943,1.402,249.1,7.172,0.162,20.91,109.6642,24.03,25.04,26.52,0,111.2,13.11,24.87,211.1
"2009-06-29 00:01:00",1016944,1.42,242.1,9.14,0.112,20.88,109.6664,24.04,25.04,26.18,0,111.2,13.11,24.87,204.1
"2009-06-29 00:01:30",1016945,1.671,235.2,3.375,0.127,20.88,109.6719,24.05,25.04,26.09,0,111.2,13.1,24.89,197.2
"2009-06-29 00:02:00",1016946,1.511,233.3,4.322,0.189,20.9,109.675,24.06,25.05,26.23,0,111.2,13.1,24.90,195.3
"2009-06-29 00:02:30",1016947,1.715,229.2,5.324,0.156,20.88,109.6802,24.07,25.05,26.13,0,111.2,13.1,24.91,191.2
"2009-06-29 00:03:00",1016948,1.513,216.9,5.499,0.138,20.88,109.6834,24.08,25.06,25.88,0,111.2,13.1,24.92,178.9
"2009-06-29 00:03:30",1016949,1.389,216.6,2.824,0.104,20.92,109.683,24.08,25.05,25.95,0,111.2,13.1,24.92,178.6
"2009-06-29 00:04:00",1016950,1.37,221.1,3.964,0.069,20.92,109.6885,24.09,25.05,25.97,0,111.2,13.11,24.93,183.1
"2009-06-29 00:04:30",1016951,1.479,228.2,3.263,0.117,20.9,109.6851,24.09,25.04,26.01,0,111.2,13.11,24.92,190.2
"2009-06-29 00:05:00",1016952,1.27,230.9,2.751,0.095,20.9,109.6795,24.07,25.04,26.17,0,111.2,13.11,24.91,192.9
"2009-06-29 00:05:30",1016953,1.4,237.1,6.536,0.117,20.91,109.6741,24.06,25.05,26.14,0,111.2,13.11,24.89,199.1
"2009-06-29 00:06:00",1016954,1.489,248.7,8.36,0.1,20.92,109.6714,24.05,25.06,26.05,0,111.2,13.12,24.89,210.7
"2009-06-29 00:06:30",1016955,1.445,225.4,1.472,0.084,20.93,109.6699,24.05,25.04,26.54,0,111.2,13.12,24.88,187.4
"2009-06-29 00:07:00",1016956,1.382,220.7,3.453,0.08,20.94,109.6694,24.05,25.05,26.86,0,111.2,13.12,24.88,182.7
"2009-06-29 00:07:30",1016957,1.539,209.9,3.331,0.079,20.93,109.6713,24.05,25.04,27.05,0,111.2,13.12,24.89,171.9
"2009-06-29 00:08:00",1016958,1.334,206.4,3.158,0.068,20.91,109.6738,24.06,25.05,27.42,0,111.2,13.12,24.89,168.4
"2009-06-29 00:08:30",1016959,1.098,199.7,6.109,0.093,20.96,109.6744,24.06,25.04,27.3,0,111.2,13.12,24.89,161.7
"2009-06-29 00:09:00",1016960,1.398,202.8,5.366,0.167,20.93,109.6741,24.06,25.05,26.66,0,111.2,13.12,24.89,164.8
"2009-06-29 00:09:30",1016961,1.437,211.1,5.579,0.119,20.88,109.6688,24.04,25.05,26.69,0,111.2,13.12,24.88,173.1
"2009-06-29 00:10:00",1016962,1.25,206.4,8.7,0.262,20.86,109.6685,24.04,25.05,26.62,0,111.2,13.12,24.88,168.4
"2009-06-29 00:10:30",1016963,1.569,205.6,5.913,0.107,20.84,109.6665,24.04,25.04,26.67,0,111.2,13.12,24.87,167.6
"2009-06-29 00:11:00",1016964,1.136,199.3,8.96,0.195,20.8,109.6665,24.04,25.05,26.46,0,111.2,13.12,24.87,161.3
"2009-06-29 00:11:30",1016965,0.967,189.4,9.01,0.117,20.76,109.6665,24.04,25.04,26.87,0,111.2,13.12,24.87,151.4
"2009-06-29 00:12:00",1016966,0.849,198.2,8.82,0.096,20.7,109.6665,24.04,25.05,27.23,0,111.2,13.12,24.87,160.2
"2009-06-29 00:12:30",1016967,0.813,197.7,8.61,0.088,20.63,109.6665,24.04,25.05,27.14,0,111.2,13.12,24.87,159.7
"2009-06-29 00:13:00",1016968,0.866,192.8,8.49,0.105,20.59,109.6665,24.04,25.06,27.14,0,111.1,13.12,24.87,154.8
"2009-06-29 00:13:30",1016969,0.657,196.9,8.56,0.11,20.6,109.6665,24.04,25.06,27.16,0,111.1,13.12,24.87,158.9
"2009-06-29 00:14:00",1016970,1.055,195.8,3.52,0.099,20.58,109.6669,24.04,25.06,27.23,0,111.1,13.12,24.87,157.8
"2009-06-29 00:14:30",1016971,0.692,185.5,16.57,0.178,20.54,109.6669,24.04,25.06,27.18,0,111.1,13.12,24.87,147.5
"2009-06-29 00:15:00",1016972,0.233,183.5,11.89,0.111,20.5,109.6657,24.04,25.06,27.1,0,111.1,13.12,24.87,145.5
"2009-06-29 00:15:30",1016973,0.278,212.6,6.645,0.086,20.41,109.666,24.04,25.06,27.04,0,111.1,13.12,24.87,174.6
"2009-06-29 00:16:00",1016974,0.33,216.1,5.191,0.053,20.48,109.6663,24.04,25.05,27.09,0,111.1,13.12,24.87,178.1
"2009-06-29 00:16:30",1016975,0.165,220.5,15.07,0.153,20.5,109.666,24.04,25.05,27.1,0,111.1,13.12,24.87,182.5
"2009-06-29 00:17:00",1016976,-0.015,205.1,68.71,0.112,20.49,109.6666,24.04,25.06,27.06,0,111.1,13.12,24.87,167.1
"2009-06-29 00:17:30",1016977,-0.062,169.6,48.9,0.037,20.48,109.6681,24.04,25.05,27.05,0,111.1,13.12,24.88,131.6
"2009-06-29 00:18:00",1016978,-0.076,92.1,46.04,0.03,20.53,109.6681,24.04,25.07,27.04,0,111.1,13.12,24.88,54.1
"2009-06-29 00:18:30",1016979,0.044,52.58,15.4,0.062,20.51,109.6681,24.04,25.07,27.09,0,111.1,13.12,24.88,14.6
"2009-06-29 00:19:00",1016980,-0.001,75.36,54.77,0.07,20.49,109.6684,24.04,25.07,27.05,0,111.1,13.12,24.88,37.4
"2009-06-29 00:19:30",1016981,0.024,50.78,11.86,0.067,20.48,109.6678,24.04,25.08,27.02,0,111.1,13.12,24.88,12.8
"2009-06-29 00:20:00",1016982,0.322,25.16,13.99,0.111,20.54,109.6718,24.05,25.08,27.05,0,111.1,13.12,24.89,347.2
"2009-06-29 00:20:30",1016983,0.088,339.9,23.52,0.084,20.59,109.6712,24.05,25.09,27.04,0,111.1,13.12,24.89,301.9
"2009-06-29 00:21:00",1016984,0.196,319,10.6,0.058,20.53,109.6712,24.05,25.08,27.07,0,111.1,13.12,24.89,281.0
"2009-06-29 00:21:30",1016985,0.282,313.6,8.15,0.072,20.48,109.6721,24.05,25.1,27.11,0,111.1,13.12,24.89,275.6
"2009-06-29 00:22:00",1016986,0.306,313.1,4.994,0.058,20.41,109.6711,24.05,25.1,27.17,0,111.1,13.12,24.89,275.1
"2009-06-29 00:22:30",1016987,0.164,316.5,3.509,0.047,20.48,109.6785,24.07,25.1,27.24,0,111.1,13.12,24.90,278.5
"2009-06-29 00:23:00",1016988,0.048,307,9.92,0.041,20.48,109.6819,24.08,25.12,27.24,0,111.1,13.12,24.91,269.0
"2009-06-29 00:23:30",1016989,0.202,321.6,7.436,0.069,20.52,109.6882,24.09,25.14,27.1,0,111.1,13.12,24.93,283.6
"2009-06-29 00:24:00",1016990,0.102,335.9,10.42,0.044,20.55,109.7033,24.13,25.13,27.07,0,111.1,13.12,24.97,297.9
"2009-06-29 00:24:30",1016991,0.154,328.5,12.31,0.072,20.55,109.7086,24.15,25.14,27.12,0,111.1,13.12,24.98,290.5
"2009-06-29 00:25:00",1016992,0.226,326,28.75,0.132,20.58,109.7107,24.15,25.15,27.11,0,111.1,13.12,24.99,288.0
"2009-06-29 00:25:30",1016993,0.223,293.8,6.817,0.047,20.55,109.7125,24.16,25.15,27.1,0,111.1,13.12,24.99,255.8
"2009-06-29 00:26:00",1016994,0.077,281.5,6.641,0.042,20.58,109.7156,24.16,25.16,27.1,0,111.1,13.12,25.00,243.5
"2009-06-29 00:26:30",1016995,0.047,292.6,12.92,0.04,20.56,109.7162,24.17,25.17,27.1,0,111.1,13.12,25.00,254.6
"2009-06-29 00:27:00",1016996,-0.074,3.353,21.79,0.022,20.63,109.7179,24.17,25.18,27.1,0,111.1,13.12,25.01,325.4
"2009-06-29 00:27:30",1016997,-0.068,356.6,23.33,0.033,21.02,109.7235,24.18,25.19,27.04,0,111.1,13.13,25.02,318.6
"2009-06-29 00:28:00",1016998,-0.053,21.09,43.44,0.043,20.83,109.7311,24.2,25.19,26.96,0,111.1,13.12,25.04,343.1
"2009-06-29 00:28:30",1016999,-0.051,17.33,16.1,0.039,20.7,109.733,24.21,25.2,26.96,0,111.1,13.13,25.04,339.3
"2009-06-29 00:29:00",1017000,-0.067,296.4,64.39,0.038,20.54,109.7361,24.22,25.21,26.99,0,111.1,13.12,25.05,258.4
"2009-06-29 00:29:30",1017001,-0.043,15.07,25.69,0.039,20.47,109.7473,24.25,25.2,27.05,0,111.1,13.13,25.08,337.1
"2009-06-29 00:30:00",1017002,-0.057,350.3,43.62,0.057,20.57,109.7497,24.25,25.21,26.96,0,111.1,13.13,25.09,312.3
"2009-06-29 00:30:30",1017003,0.005,44.05,34.04,0.071,20.38,109.7515,24.26,25.22,26.88,0,111.1,13.12,25.09,6.0
"2009-06-29 00:31:00",1017004,0.06,64.8,3.685,0.056,20.3,109.7546,24.26,25.21,26.93,0,111.1,13.13,25.10,26.8
"2009-06-29 00:31:30",1017005,0.062,71.27,9.69,0.036,20.39,109.7555,24.27,25.22,26.93,0,111.1,13.12,25.10,33.3
"2009-06-29 00:32:00",1017006,0.139,57.83,5.388,0.028,20.32,109.7552,24.27,25.23,26.94,0,111.1,13.12,25.10,19.8
"2009-06-29 00:32:30",1017007,0.105,52.69,6.915,0.035,20.35,109.7555,24.27,25.24,26.92,0,111.1,13.12,25.10,14.7
"2009-06-29 00:33:00",1017008,0.186,71.1,7.748,0.089,20.41,109.757,24.27,25.25,26.91,0,111.1,13.12,25.11,33.1
"2009-06-29 00:33:30",1017009,0.312,65.13,4.036,0.042,20.38,109.7564,24.27,25.26,26.87,0,111.1,13.13,25.11,27.1
"2009-06-29 00:34:00",1017010,0.284,77.04,5.563,0.044,20.46,109.7597,24.28,25.27,26.78,0,111.1,13.13,25.11,39.0
"2009-06-29 00:34:30",1017011,0.162,89.8,4.656,0.093,20.52,109.7645,24.29,25.28,26.69,0,111.1,13.12,25.13,51.8
"2009-06-29 00:35:00",1017012,0.13,77.35,4.101,0.067,20.5,109.7651,24.29,25.29,26.68,0,111.1,13.12,25.13,39.3
"2009-06-29 00:35:30",1017013,0.227,62.35,6.142,0.039,20.46,109.7717,24.31,25.29,26.69,0,111.1,13.12,25.14,24.3
"2009-06-29 00:36:00",1017014,0.262,63.06,7.428,0.071,20.53,109.7791,24.33,25.29,26.67,0,111.1,13.12,25.16,25.1
"2009-06-29 00:36:30",1017015,0.272,71.89,6.325,0.045,20.56,109.7855,24.34,25.3,26.58,0,111.1,13.12,25.18,33.9
"2009-06-29 00:37:00",1017016,0.351,67.67,4.945,0.084,20.6,109.7908,24.36,25.32,26.52,0,111.1,13.12,25.19,29.7
"2009-06-29 00:37:30",1017017,0.385,63.47,4.734,0.076,20.6,109.7932,24.36,25.32,26.42,0,111.1,13.12,25.20,25.5
"2009-06-29 00:38:00",1017018,0.407,74.03,10.63,0.117,20.61,109.7926,24.36,25.34,26.33,0,111.1,13.12,25.20,36.0
"2009-06-29 00:38:30",1017019,0.323,57.49,9.59,0.107,20.64,109.7926,24.36,25.34,26.2,0,111.1,13.12,25.20,19.5
"2009-06-29 00:39:00",1017020,0.342,57.04,5.045,0.053,20.66,109.7944,24.37,25.35,26.12,0,111.1,13.12,25.20,19.0
"2009-06-29 00:39:30",1017021,0.211,54.04,8.26,0.121,20.64,109.7922,24.36,25.35,26.16,0,111.1,13.12,25.20,16.0
"2009-06-29 00:40:00",1017022,0.073,84.1,28.31,0.139,20.63,109.7932,24.36,25.35,26.15,0,111.1,13.12,25.20,46.1
"2009-06-29 00:40:30",1017023,0.094,67.72,30.48,0.042,20.66,109.7941,24.37,25.36,26.12,0,111.1,13.12,25.20,29.7
"2009-06-29 00:41:00",1017024,0.067,62.59,14.45,0.056,20.68,109.7944,24.37,25.37,26.14,0,111.1,13.12,25.20,24.6
"2009-06-29 00:41:30",1017025,0.222,41.5,11.02,0.097,20.75,109.7938,24.36,25.36,26.15,0,111.1,13.12,25.20,3.5
"2009-06-29 00:42:00",1017026,0.369,39.07,5.405,0.116,20.74,109.7938,24.36,25.36,26.23,0,111.1,13.12,25.20,1.1
"2009-06-29 00:42:30",1017027,0.307,26.25,10.89,0.041,20.78,109.7947,24.37,25.37,26.22,0,111.1,13.13,25.20,348.2
"2009-06-29 00:43:00",1017028,0.203,22.38,13.93,0.121,20.75,109.7947,24.37,25.36,26.27,0,111.1,13.12,25.20,344.4
"2009-06-29 00:43:30",1017029,0.104,100.4,20.91,0.112,20.79,109.7945,24.37,25.35,26.24,0,111.1,13.12,25.20,62.4
"2009-06-29 00:44:00",1017030,0.223,107.1,21.16,0.12,20.78,109.7897,24.35,25.35,26.14,0,111.1,13.12,25.19,69.1
"2009-06-29 00:44:30",1017031,0.327,104.5,14.73,0.145,20.79,109.7827,24.34,25.35,26.13,0,111.1,13.13,25.17,66.5
"2009-06-29 00:45:00",1017032,0.325,132.4,17.34,0.092,20.81,109.7779,24.32,25.36,26.11,0,111.1,13.13,25.16,94.4
"2009-06-29 00:45:30",1017033,0.359,114.2,18.59,0.16,20.81,109.772,24.31,25.34,26.13,0,111.2,13.13,25.15,76.2
"2009-06-29 00:46:00",1017034,0.379,128.7,13,0.097,20.81,109.7701,24.3,25.34,26.12,0,111.1,13.13,25.14,90.7
"2009-06-29 00:46:30",1017035,0.371,146.6,2.38,0.058,20.79,109.7687,24.3,25.35,26.03,0,111.1,13.13,25.14,108.6
"2009-06-29 00:47:00",1017036,0.412,138.5,3.754,0.05,20.73,109.7673,24.3,25.33,25.97,0,111.1,13.13,25.13,100.5
"2009-06-29 00:47:30",1017037,0.316,140.6,4.203,0.045,20.8,109.7653,24.29,25.34,25.96,0,111.1,13.13,25.13,102.6
"2009-06-29 00:48:00",1017038,0.453,144.9,3.631,0.077,20.79,109.7622,24.28,25.34,25.81,0,111.1,13.13,25.12,106.9
"2009-06-29 00:48:30",1017039,0.58,140.1,3.467,0.054,20.82,109.7616,24.28,25.33,25.64,0,111.1,13.13,25.12,102.1
"2009-06-29 00:49:00",1017040,0.503,136.1,3.133,0.045,20.79,109.7616,24.28,25.32,25.71,0,111.1,13.13,25.12,98.1
"2009-06-29 00:49:30",1017041,0.514,137.4,3.136,0.048,20.78,109.7632,24.29,25.32,25.89,0,111.1,13.13,25.12,99.4
"2009-06-29 00:50:00",1017042,0.512,138.6,3.653,0.03,20.78,109.7629,24.29,25.32,25.87,0,111.1,13.13,25.12,100.6
"2009-06-29 00:50:30",1017043,0.536,141.5,1.652,0.027,20.82,109.7632,24.29,25.31,25.93,0,111.1,13.13,25.12,103.5
"2009-06-29 00:51:00",1017044,0.518,135.7,3.33,0.052,20.78,109.7644,24.29,25.33,25.83,0,111.1,13.13,25.13,97.7
"2009-06-29 00:51:30",1017045,0.424,134.3,3.299,0.052,20.82,109.7644,24.29,25.29,25.79,0,111.1,13.12,25.13,96.3
"2009-06-29 00:52:00",1017046,0.509,144.4,5.382,0.05,20.81,109.7647,24.29,25.3,25.79,0,111.1,13.12,25.13,106.4
"2009-06-29 00:52:30",1017047,0.535,148.8,3.814,0.049,20.85,109.755,24.27,25.3,25.93,0,111.1,13.12,25.10,110.8
"2009-06-29 00:53:00",1017048,0.46,145.4,2.081,0.074,20.84,109.7519,24.26,25.29,26.01,0,111.1,13.12,25.09,107.4
"2009-06-29 00:53:30",1017049,0.493,156.6,5.198,0.056,20.88,109.7452,24.24,25.27,26.13,0,111.1,13.12,25.08,118.6
"2009-06-29 00:54:00",1017050,0.451,152.9,5.141,0.057,20.87,109.7428,24.23,25.27,26.22,0,111.1,13.12,25.07,114.9
"2009-06-29 00:54:30",1017051,0.602,149,4.352,0.136,20.85,109.7408,24.23,25.27,26.25,0,111.1,13.12,25.07,111.0
"2009-06-29 00:55:00",1017052,0.775,145.8,2.838,0.041,20.83,109.7389,24.22,25.26,26.19,0,111.1,13.12,25.06,107.8
"2009-06-29 00:55:30",1017053,0.684,145.3,2.911,0.055,20.83,109.7372,24.22,25.26,26.22,0,111.1,13.12,25.06,107.3
"2009-06-29 00:56:00",1017054,0.72,146.8,2.546,0.047,20.85,109.7369,24.22,25.26,26.22,0,111.1,13.12,25.06,108.8
"2009-06-29 00:56:30",1017055,0.724,143.4,2.693,0.056,20.83,109.7372,24.22,25.23,26.16,0,111.2,13.12,25.06,105.4
"2009-06-29 00:57:00",1017056,0.633,140.3,3.46,0.04,20.86,109.7372,24.22,25.24,26.2,0,111.2,13.12,25.06,102.3
"2009-06-29 00:57:30",1017057,0.741,136.2,2.666,0.068,20.82,109.7246,24.19,25.23,26.29,0,111.1,13.13,25.02,98.2
"2009-06-29 00:58:00",1017058,0.821,136.4,6.325,0.073,20.81,109.7088,24.15,25.21,26.5,0,111.1,13.13,24.98,98.4
"2009-06-29 00:58:30",1017059,0.878,150.6,5.575,0.039,20.84,109.7038,24.13,25.18,27.5,0,111.1,13.13,24.97,112.6
"2009-06-29 00:59:00",1017060,0.953,148.3,5.415,0.056,20.8,109.7035,24.13,25.16,28.08,0,111.1,13.13,24.97,110.3
"2009-06-29 00:59:30",1017061,0.903,155.3,3.058,0.067,20.82,109.7035,24.13,25.16,28.58,0,111.1,13.13,24.97,117.3
"2009-06-29 01:00:00",1017062,1.035,153.1,1.881,0.07,20.81,109.7035,24.13,25.16,28.75,0,111.1,13.13,24.97,115.1
"2009-06-29 01:00:30",1017063,0.898,154.4,1.661,0.055,20.86,109.7035,24.13,25.16,28.77,0,111.1,13.13,24.97,116.4
"2009-06-29 01:01:00",1017064,0.782,165.4,6.437,0.067,20.86,109.7035,24.13,25.15,28.85,0,111.1,13.13,24.97,127.4
"2009-06-29 01:01:30",1017065,0.757,170.6,3.291,0.057,20.87,109.7029,24.13,25.13,29,0,111.1,13.13,24.97,132.6
"2009-06-29 01:02:00",1017066,0.805,162.2,8.15,0.097,20.91,109.6948,24.11,25.13,28.92,0,111.1,13.13,24.95,124.2
"2009-06-29 01:02:30",1017067,0.564,168.9,6.589,0.114,20.89,109.6847,24.08,25.13,28.97,0,111.1,13.13,24.92,130.9
"2009-06-29 01:03:00",1017068,0.593,166.5,4.323,0.092,20.89,109.6763,24.06,25.12,29.46,0,111.1,13.13,24.90,128.5
"2009-06-29 01:03:30",1017069,0.651,185.1,2.19,0.035,20.91,109.6715,24.05,25.11,29.46,0,111.1,13.14,24.89,147.1
"2009-06-29 01:04:00",1017070,0.642,181.1,5.363,0.041,20.93,109.6701,24.05,25.1,29.16,0,111.1,13.14,24.88,143.1
"2009-06-29 01:04:30",1017071,0.575,177.9,5.206,0.064,20.94,109.6698,24.05,25.09,29.06,0,111.1,13.14,24.88,139.9
"2009-06-29 01:05:00",1017072,0.636,169.6,6.86,0.071,20.91,109.6698,24.05,25.1,29.19,0,111.1,13.14,24.88,131.6
"2009-06-29 01:05:30",1017073,0.917,161,6.438,0.131,20.91,109.6698,24.05,25.09,29.63,0,111.1,13.14,24.88,123.0
"2009-06-29 01:06:00",1017074,0.584,170.5,10.61,0.101,20.92,109.6695,24.05,25.07,29.88,0,111.1,13.14,24.88,132.5
"2009-06-29 01:06:30",1017075,0.586,193.4,6.896,0.111,20.94,109.6589,24.02,25.06,29.81,0,111.1,13.14,24.85,155.4
"2009-06-29 01:07:00",1017076,0.691,181.5,4.877,0.098,20.94,109.6468,23.99,25.06,29.88,0,111.1,13.14,24.82,143.5
"2009-06-29 01:07:30",1017077,0.74,163.8,3.785,0.179,20.95,109.6364,23.96,25.04,30.06,0,111.1,13.14,24.80,125.8
"2009-06-29 01:08:00",1017078,0.636,146.9,8.39,0.081,20.91,109.6254,23.93,25.01,30.2,0,111.1,13.14,24.77,108.9
"2009-06-29 01:08:30",1017079,1.271,144.6,7.434,0.162,20.94,109.6066,23.88,25.01,30.18,0,111.1,13.14,24.72,106.6
"2009-06-29 01:09:00",1017080,1.344,167.7,11.56,0.196,21.02,109.6024,23.87,24.97,29.98,0,111.1,13.13,24.71,129.7
"2009-06-29 01:09:30",1017081,1.117,168.1,3.671,0.089,21.07,109.6024,23.87,24.95,29.95,0,111.1,13.13,24.71,130.1
"2009-06-29 01:10:00",1017082,1.059,170.4,6.498,0.077,21.07,109.5979,23.86,24.93,30.01,0,111.1,13.13,24.70,132.4
"2009-06-29 01:10:30",1017083,0.97,180,3.437,0.037,21.1,109.5859,23.83,24.91,29.93,0,111.1,13.13,24.67,142.0
"2009-06-29 01:11:00",1017084,1.056,181.7,0.843,0.052,21.14,109.5793,23.81,24.9,29.56,0,111.1,13.13,24.65,143.7
"2009-06-29 01:11:30",1017085,1.131,180,2.816,0.073,21.09,109.5767,23.81,24.88,28.98,0,111.1,13.13,24.64,142.0
"2009-06-29 01:12:00",1017086,1.23,180.5,2.588,0.051,21.07,109.5748,23.8,24.86,28.5,0,111.1,13.13,24.64,142.5
"2009-06-29 01:12:30",1017087,1.252,170.6,3.299,0.05,21.05,109.5755,23.8,24.85,28.1,0,111.1,13.13,24.64,132.6
"2009-06-29 01:13:00",1017088,1.304,176.6,4.699,0.096,21.06,109.5795,23.81,24.85,28.26,0,111.1,13.13,24.65,138.6
"2009-06-29 01:13:30",1017089,1.229,195.7,6.02,0.059,21.03,109.579,23.81,24.84,29.02,0,111.1,13.13,24.65,157.7
"2009-06-29 01:14:00",1017090,0.985,200.6,1.457,0.05,21.03,109.5837,23.83,24.84,29,0,111.1,13.13,24.66,162.6
"2009-06-29 01:14:30",1017091,1.034,195.9,3.178,0.091,21.07,109.5809,23.82,24.83,29.08,0,111.1,13.14,24.65,157.9
"2009-06-29 01:15:00",1017092,1.294,193.4,4.413,0.036,21.05,109.577,23.81,24.82,29.1,0,111.1,13.14,24.64,155.4
"2009-06-29 01:15:30",1017093,1.377,198.6,3.444,0.071,21.03,109.5707,23.79,24.8,28.99,0,111.1,13.14,24.63,160.6
"2009-06-29 01:16:00",1017094,1.499,198.3,1.271,0.056,21.09,109.5652,23.78,24.8,29.09,0,111.1,13.14,24.61,160.3
"2009-06-29 01:16:30",1017095,1.341,200,4.585,0.088,21.05,109.5621,23.77,24.8,29.12,0,111.1,13.14,24.60,162.0
"2009-06-29 01:17:00",1017096,1.443,202.8,2.127,0.09,21.06,109.5627,23.77,24.79,29.1,0,111.1,13.14,24.61,164.8
"2009-06-29 01:17:30",1017097,1.567,204.9,1.752,0.077,21.11,109.5627,23.77,24.79,29.22,0,111.1,13.14,24.61,166.9
"2009-06-29 01:18:00",1017098,1.34,205,2.335,0.084,21.04,109.5627,23.77,24.78,29.4,0,111.1,13.14,24.61,167.0
"2009-06-29 01:18:30",1017099,1.239,201,3.149,0.07,21.08,109.5611,23.77,24.77,29.33,0,111.1,13.14,24.60,163.0
"2009-06-29 01:19:00",1017100,1.07,196.3,4.265,0.083,21.16,109.5478,23.73,24.76,29.28,0,111.1,13.14,24.57,158.3
"2009-06-29 01:19:30",1017101,1.311,206.4,2.534,0.096,21.07,109.539,23.71,24.75,29.18,0,111.1,13.14,24.54,168.4
"2009-06-29 01:20:00",1017102,1.342,200.3,2.514,0.047,21.04,109.5385,23.71,24.74,28.47,0,111.1,13.14,24.54,162.3
"2009-06-29 01:20:30",1017103,1.231,204.2,6.599,0.096,21.04,109.5336,23.7,24.74,28.05,0,111.1,13.14,24.53,166.2
"2009-06-29 01:21:00",1017104,1.15,209.3,3.621,0.056,21.06,109.5352,23.7,24.72,28.09,0,111.1,13.14,24.54,171.3
"2009-06-29 01:21:30",1017105,1.143,201.7,5.427,0.054,21.07,109.5349,23.7,24.71,27.81,0,111.1,13.14,24.53,163.7
"2009-06-29 01:22:00",1017106,0.976,192.7,2.046,0.077,21.11,109.536,23.7,24.72,28.32,0,111.1,13.14,24.54,154.7
"2009-06-29 01:22:30",1017107,0.906,189.3,3.141,0.046,21.06,109.5337,23.7,24.7,29.14,0,111.1,13.14,24.53,151.3
"2009-06-29 01:23:00",1017108,0.909,185.1,2.66,0.035,21.06,109.5332,23.7,24.69,29.92,0,111.1,13.14,24.53,147.1
"2009-06-29 01:23:30",1017109,0.999,181,3.827,0.068,21.08,109.5284,23.68,24.68,30.26,0,111.1,13.15,24.52,143.0
"2009-06-29 01:24:00",1017110,0.875,197.3,5.112,0.133,21,109.5183,23.66,24.67,30.07,0,111.1,13.14,24.49,159.3
"2009-06-29 01:24:30",1017111,0.662,186.9,5.583,0.031,20.92,109.513,23.64,24.68,30.21,0,111.1,13.15,24.48,148.9
"2009-06-29 01:25:00",1017112,0.692,173.2,3.461,0.059,20.83,109.5099,23.64,24.67,30.48,0,111.1,13.15,24.47,135.2
"2009-06-29 01:25:30",1017113,0.899,172.1,1.77,0.048,20.79,109.5048,23.62,24.66,30.61,0,111.1,13.15,24.46,134.1
"2009-06-29 01:26:00",1017114,0.877,177.5,3.784,0.166,20.69,109.5045,23.62,24.66,30.75,0,111.1,13.14,24.46,139.5
"2009-06-29 01:26:30",1017115,0.991,170.8,4.7,0.146,20.55,109.5045,23.62,24.66,30.74,0,111.1,13.14,24.46,132.8
"2009-06-29 01:27:00",1017116,0.94,177.8,2.814,0.108,20.55,109.5045,23.62,24.66,30.72,0,111.1,13.14,24.46,139.8
"2009-06-29 01:27:30",1017117,0.927,177.6,5.031,0.076,20.47,109.5043,23.62,24.66,30.66,0,111.1,13.14,24.46,139.6
"2009-06-29 01:28:00",1017118,0.864,175.3,2.887,0.045,20.37,109.5045,23.62,24.66,30.55,0,111.1,13.14,24.46,137.3
"2009-06-29 01:28:30",1017119,0.959,186.8,4.549,0.142,20.33,109.5043,23.62,24.64,30.53,0,111.1,13.14,24.46,148.8
"2009-06-29 01:29:00",1017120,0.901,191.7,1.998,0.049,20.3,109.5045,23.62,24.66,30.56,0,111.1,13.14,24.46,153.7
"2009-06-29 01:29:30",1017121,0.919,193.8,1.879,0.041,20.28,109.5045,23.62,24.65,30.62,0,111.1,13.14,24.46,155.8
"2009-06-29 01:30:00",1017122,0.886,190.3,3.059,0.071,20.27,109.5045,23.62,24.65,30.68,0,111.1,13.14,24.46,152.3
"2009-06-29 01:30:30",1017123,0.74,192.9,2.392,0.034,20.15,109.5045,23.62,24.64,30.68,0,111.1,13.14,24.46,154.9
"2009-06-29 01:31:00",1017124,0.736,192.2,3.001,0.023,20.13,109.5054,23.62,24.66,30.69,0,111.1,13.14,24.46,154.2
"2009-06-29 01:31:30",1017125,0.831,188.9,4.105,0.092,20.14,109.511,23.64,24.66,30.69,0,111.1,13.14,24.47,150.9
"2009-06-29 01:32:00",1017126,0.898,175.7,6.061,0.059,20.17,109.5217,23.67,24.68,30.67,0,111.1,13.14,24.50,137.7
"2009-06-29 01:32:30",1017127,0.855,175.4,2.658,0.096,20.22,109.5312,23.69,24.68,30.57,0,111.1,13.15,24.52,137.4
"2009-06-29 01:33:00",1017128,0.738,181.1,1.947,0.054,20.25,109.538,23.71,24.7,30.44,0,111.1,13.15,24.54,143.1
"2009-06-29 01:33:30",1017129,0.764,184.3,2.061,0.063,20.24,109.5382,23.71,24.71,30.34,0,111.1,13.15,24.54,146.3
"2009-06-29 01:34:00",1017130,0.849,186.9,2.994,0.078,20.2,109.5408,23.71,24.72,30.32,0,111.1,13.15,24.55,148.9
"2009-06-29 01:34:30",1017131,0.873,192.2,4.053,0.055,20.15,109.5509,23.74,24.74,30.67,0,111.1,13.15,24.58,154.2
"2009-06-29 01:35:00",1017132,0.872,195.1,2.008,0.021,20.13,109.5708,23.79,24.75,30.86,0,111.1,13.15,24.63,157.1
"2009-06-29 01:35:30",1017133,0.89,191.8,1.595,0.028,20.16,109.572,23.79,24.77,30.86,0,111.1,13.15,24.63,153.8
"2009-06-29 01:36:00",1017134,0.97,191.1,3.096,0.069,20.21,109.5747,23.8,24.79,30.83,0,111.1,13.15,24.64,153.1
"2009-06-29 01:36:30",1017135,0.937,189.8,3.206,0.08,20.25,109.5935,23.85,24.81,30.62,0,111.1,13.15,24.69,151.8
"2009-06-29 01:37:00",1017136,1.017,183,2.739,0.072,20.38,109.6032,23.88,24.82,30.55,0,111.1,13.15,24.71,145.0
"2009-06-29 01:37:30",1017137,0.964,187.2,1.395,0.033,20.39,109.6023,23.87,24.84,30.62,0,111.1,13.15,24.71,149.2
"2009-06-29 01:38:00",1017138,0.964,182.9,2.94,0.068,20.41,109.6066,23.88,24.87,30.6,0,111.1,13.14,24.72,144.9
"2009-06-29 01:38:30",1017139,1.059,182.3,2.005,0.053,20.41,109.6205,23.92,24.88,30.58,0,111.1,13.14,24.75,144.3
"2009-06-29 01:39:00",1017140,1.099,181.5,1.203,0.051,20.37,109.6311,23.95,24.9,30.52,0,111.1,13.14,24.78,143.5
"2009-06-29 01:39:30",1017141,1.024,185.8,2.437,0.049,20.34,109.6307,23.95,24.92,30.45,0,111.1,13.14,24.78,147.8
"2009-06-29 01:40:00",1017142,1.112,190,1.88,0.038,20.3,109.6389,23.97,24.92,30.39,0,111.1,13.14,24.80,152.0
"2009-06-29 01:40:30",1017143,1.021,184.4,3.046,0.075,20.37,109.6509,24,24.95,30.34,0,111.1,13.14,24.83,146.4
"2009-06-29 01:41:00",1017144,1.095,187.8,2.037,0.071,20.31,109.6636,24.03,24.97,30.13,0,111.1,13.14,24.87,149.8
"2009-06-29 01:41:30",1017145,1.036,183.5,1.835,0.069,20.35,109.6638,24.03,24.99,30.2,0,111.1,13.14,24.87,145.5
"2009-06-29 01:42:00",1017146,0.955,184.3,1.514,0.09,20.31,109.6691,24.04,25.01,30.23,0,111.1,13.14,24.88,146.3
"2009-06-29 01:42:30",1017147,0.903,182.5,2.347,0.088,20.33,109.6836,24.08,25.05,30.22,0,111.1,13.14,24.92,144.5
"2009-06-29 01:43:00",1017148,1.13,188.4,3.363,0.057,20.33,109.6957,24.11,25.05,30.23,0,111.1,13.14,24.95,150.4
"2009-06-29 01:43:30",1017149,1.227,185.7,2.191,0.054,20.32,109.6948,24.11,25.07,30.25,0,111.1,13.14,24.95,147.7
"2009-06-29 01:44:00",1017150,1.081,187.9,4.497,0.073,20.35,109.6946,24.11,25.09,30.26,0,111.1,13.14,24.95,149.9
"2009-06-29 01:44:30",1017151,0.977,186.4,3.82,0.049,20.4,109.6983,24.12,25.09,30.24,0,111.1,13.13,24.96,148.4
"2009-06-29 01:45:00",1017152,1.162,186,4.95,0.119,20.36,109.7167,24.17,25.11,30.2,0,111.1,13.13,25.00,148.0
"2009-06-29 01:45:30",1017153,1.306,186.6,2.046,0.072,20.31,109.7137,24.16,25.14,30.09,0,111.1,13.13,25.00,148.6
"2009-06-29 01:46:00",1017154,1.11,191.7,2.885,0.074,20.36,109.7115,24.15,25.14,29.96,0,111.1,13.13,24.99,153.7
"2009-06-29 01:46:30",1017155,0.957,193.5,1.368,0.047,20.42,109.7077,24.14,25.17,29.93,0,111.1,13.13,24.98,155.5